Location: Alto Pass Reservoir
(37.5801°N, 89.3084°W)
Time: 21:38:22
(UTC+00:00)

Cosmos 2298 Rocket - Pass Details

Date: 12 July 2022
Orbit: 775 x 784 km, 74.0° (Epoch: 11 August)

Event Time Altitude Azimuth Distance (km) Brightness Sun altitude
Rises 07:56:44 0° 340° (NNW) 3,279 7.8 -24.7°
Reaches altitude 10° 07:59:08 10° 338° (NNW) 2,346 7.0 -24.5°
Maximum altitude 08:04:27 76° 254° (WSW) 810 3.9 -24.0°
Enters shadow 08:05:12 64° 195° (SSW) 868 3.9 -23.9°
